PDT,Max TemperatureF,Mean TemperatureF,Min TemperatureF,Max Dew PointF,MeanDew PointF,Min DewpointF,Max Humidity, Mean Humidity, Min Humidity, Max Sea Level PressureIn, Mean Sea Level PressureIn, Min Sea Level PressureIn, Max VisibilityMiles, Mean VisibilityMiles, Min VisibilityMiles, Max Wind SpeedMPH, Mean Wind SpeedMPH, Max Gust SpeedMPH,PrecipitationIn, CloudCover, Events, WindDirDegrees
2012-3-1,54,43,32,27,23,19,75,52,29,30.30,30.04,29.79,10,10,10,22,12,29,0.00,1,,262
2012-3-2,50,41,31,35,31,23,82,66,50,30.40,30.34,30.30,10,10,10,23,12,29,0.00,3,,215
2012-3-3,63,54,44,41,37,34,76,55,34,30.32,30.29,30.26,10,10,10,26,13,32,0.00,0,,227
2012-3-4,67,50,32,39,35,31,96,63,29,30.30,30.14,29.94,10,10,10,20,8,23,0.00,1,,214
2012-3-5,63,48,32,37,30,15,65,49,32,29.92,29.77,29.65,10,10,10,35,14,46,0.01,3,,227
2012-3-6,50,39,28,24,17,9,75,47,19,30.27,30.06,29.87,10,10,10,16,9,21,0.00,1,,264
2012-3-7,52,35,18,24,20,16,91,59,26,30.45,30.40,30.28,10,10,10,13,3,26,0.00,0,,140
2012-3-8,58,40,21,29,25,19,84,56,28,30.48,30.38,30.27,10,10,10,9,4,12,0.00,0,,330
2012-3-9,72,49,26,32,26,23,85,51,17,30.28,30.11,29.94,10,10,10,21,5,26,0.00,0,,200
2012-3-10,62,52,42,37,33,27,54,44,34,29.92,29.83,29.66,10,10,10,23,7,28,0.00,4,,212
2012-3-11,56,48,39,41,31,18,89,59,28,29.87,29.70,29.58,10,10,6,37,11,46,0.06,3,Rain,221
2012-3-12,61,47,33,37,31,26,82,58,33,29.86,29.59,29.30,10,10,9,37,11,45,T,6,Rain,147
2012-3-13,61,47,33,35,25,15,56,40,24,29.94,29.61,29.25,10,10,10,35,19,41,0.01,4,Rain,225
2012-3-14,57,46,34,41,34,24,85,62,38,29.95,29.89,29.83,10,10,9,20,5,25,0.01,8,Rain,153
2012-3-15,65,57,48,47,42,38,86,65,44,29.81,29.70,29.65,10,10,10,28,9,35,T,7,Rain,178
2012-3-16,60,53,45,42,33,21,76,50,23,29.74,29.61,29.38,10,10,10,25,10,30,0.02,4,Rain,188
2012-3-17,57,43,29,44,32,21,93,61,28,29.63,29.49,29.34,10,10,10,31,11,41,0.03,2,Rain,220
2012-3-18,53,39,24,30,26,22,88,63,38,29.77,29.63,29.59,10,10,10,14,3,17,0.00,1,,273
2012-3-19,52,41,30,27,22,15,72,48,24,29.94,29.87,29.79,10,10,10,22,12,28,0.00,2,,214
2012-3-20,55,49,43,38,33,26,71,55,38,29.98,29.80,29.66,10,10,10,37,13,45,T,6,Rain,207
2012-3-21,43,39,34,38,36,33,92,81,70,30.04,29.97,29.83,10,10,7,20,9,24,0.35,8,Rain,326
2012-3-22,52,43,33,38,33,29,100,71,41,30.06,29.93,29.78,10,9,2,18,8,25,0.17,5,Rain-Snow,279
2012-3-23,53,43,33,34,32,28,96,69,41,30.12,30.05,29.96,10,10,10,10,4,13,0.00,3,,342
2012-3-24,57,46,34,38,35,31,92,68,43,30.10,30.00,29.90,10,10,10,18,8,23,0.00,0,,332
2012-3-25,62,48,33,38,34,30,92,64,36,29.90,29.74,29.65,10,10,10,15,5,17,0.00,0,,2
2012-3-26,62,48,34,38,31,17,82,51,19,29.81,29.73,29.65,10,10,10,30,14,38,0.00,2,,214
2012-3-27,57,45,32,46,39,29,89,72,55,29.87,29.78,29.65,10,10,8,17,4,21,0.22,6,Rain,106
2012-3-28,64,55,45,46,37,29,93,60,27,29.88,29.77,29.62,10,10,10,24,9,37,T,4,Rain,219
2012-3-29,61,53,45,47,40,35,76,58,39,29.84,29.66,29.50,10,10,10,29,10,38,0.01,7,Rain,163
2012-3-30,59,52,45,47,42,35,83,70,56,29.75,29.64,29.48,10,10,5,24,16,31,0.08,7,Rain,228
2012-3-31,51,43,35,44,39,34,93,77,61,29.71,29.54,29.44,10,9,5,24,7,29,0.07,5,Rain,353